{"data":{"norad_id":62798,"epoch":"2026-09-22T20:39:14.538816Z","epoch_age_seconds":114154,"freshness":"FRESH","line1":"1 62798U 25016P   26265.86058494  .00000055  00000+0  66652-4 0  9999","line2":"2 62798  88.9670  73.5892 0013491 239.1641 120.8183 13.51022179 85603","mean_motion":13.51022179,"eccentricity":0.0013491,"inclination_deg":88.967,"raan_deg":73.5892,"arg_perigee_deg":239.1641,"mean_anomaly_deg":120.8183,"bstar":6.6652e-5,"rev_number":8560,"period_min":106.58596301253,"perigee_km":1058.4538277635,"apogee_km":1078.5463439486,"semimajor_km":7446.6370858561,"source":"CELESTRAK","updated_at":"2026-09-23T09:00:21.636888Z"}}